DLH273 LIML-EDDF

Flight info

Callsign DLH273
Flight time 0h 52m
Altitude 36000
Route PEPAG N851 UTAVO DCT ROLSA DCT LADOL T163 EMPAX EMPAX5B
Aircraft A319/M-SDE3FGHIRWY/LB1

Departure

Time 2026-04-18 10:51
Airport Milano Linate Airport (LIML)

Arrival

Time 2026-04-18 11:43
Airport Frankfurt Main Airport (EDDF)
Time Latitude Longitude Altitude Speed Heading
2026-04-18 10:20 45.45973 9.27967 360 ft 0 kts 360°
2026-04-18 10:41 45.45960 9.27967 360 ft 3 kts 360°
2026-04-18 10:41 45.45938 9.27966 360 ft 3 kts 360°
2026-04-18 10:41 45.45919 9.27966 363 ft 3 kts 348°
2026-04-18 10:41 45.45904 9.27975 362 ft 3 kts 291°
2026-04-18 10:42 45.45903 9.28001 360 ft 3 kts 258°
2026-04-18 10:42 45.45906 9.28029 360 ft 1 kts 271°
2026-04-18 10:44 45.45906 9.28016 363 ft 3 kts 271°
2026-04-18 10:44 45.45882 9.27985 361 ft 6 kts 193°
2026-04-18 10:44 45.45832 9.27984 360 ft 9 kts 180°
2026-04-18 10:45 45.45754 9.27982 362 ft 14 kts 181°
2026-04-18 10:45 45.45647 9.27980 362 ft 16 kts 181°
2026-04-18 10:45 45.45529 9.27978 362 ft 17 kts 180°
2026-04-18 10:45 45.45411 9.27978 360 ft 12 kts 180°
2026-04-18 10:46 45.45334 9.27940 363 ft 13 kts 207°
2026-04-18 10:46 45.45251 9.27884 361 ft 14 kts 199°
2026-04-18 10:46 45.45154 9.27872 360 ft 15 kts 175°
2026-04-18 10:46 45.45046 9.27884 366 ft 16 kts 175°
2026-04-18 10:47 45.44933 9.27905 360 ft 17 kts 163°
2026-04-18 10:47 45.44815 9.27943 360 ft 18 kts 175°
2026-04-18 10:47 45.44680 9.27957 360 ft 21 kts 176°
2026-04-18 10:47 45.44526 9.27973 360 ft 23 kts 175°
2026-04-18 10:48 45.44356 9.27992 360 ft 26 kts 175°
2026-04-18 10:48 45.44174 9.28011 363 ft 26 kts 175°
2026-04-18 10:48 45.43990 9.28031 361 ft 27 kts 175°
2026-04-18 10:48 45.43806 9.28051 364 ft 26 kts 176°
2026-04-18 10:49 45.43623 9.28070 362 ft 27 kts 175°
2026-04-18 10:49 45.43493 9.28083 362 ft 13 kts 181°
2026-04-18 10:49 45.43444 9.27986 361 ft 14 kts 266°
2026-04-18 10:49 45.43439 9.27860 366 ft 8 kts 267°
2026-04-18 10:50 45.43468 9.27819 363 ft 7 kts 354°
2026-04-18 10:50 45.43535 9.27811 364 ft 15 kts 355°
2026-04-18 10:50 45.43911 9.27771 362 ft 95 kts 355°
2026-04-18 10:50 45.44797 9.27676 390 ft 155 kts 356°
2026-04-18 10:51 45.45873 9.27579 1024 ft 155 kts 358°
2026-04-18 10:51 45.46962 9.27459 1705 ft 158 kts 358°
2026-04-18 10:51 45.48052 9.27308 2478 ft 157 kts 358°
2026-04-18 10:51 45.49137 9.27169 3212 ft 155 kts 356°
2026-04-18 10:52 45.50222 9.27046 3827 ft 162 kts 357°
2026-04-18 10:52 45.51017 9.26958 4084 ft 177 kts 356°
2026-04-18 10:52 45.52326 9.26810 4452 ft 201 kts 356°
2026-04-18 10:52 45.53809 9.26641 4874 ft 226 kts 355°
2026-04-18 10:53 45.55457 9.26454 5395 ft 250 kts 355°
2026-04-18 10:53 45.57263 9.26247 6063 ft 268 kts 355°
2026-04-18 10:53 45.59142 9.26035 7010 ft 273 kts 354°
2026-04-18 10:53 45.61047 9.25814 8027 ft 276 kts 353°
2026-04-18 10:54 45.62926 9.25217 9032 ft 278 kts 342°
2026-04-18 10:54 45.64785 9.24409 10057 ft 281 kts 342°
2026-04-18 10:54 45.66669 9.23593 10949 ft 285 kts 342°
2026-04-18 10:54 45.68585 9.22820 11848 ft 288 kts 348°
2026-04-18 10:55 45.70584 9.22429 12765 ft 291 kts 352°
2026-04-18 10:55 45.72605 9.22074 13699 ft 294 kts 352°
2026-04-18 10:55 45.74642 9.21714 14538 ft 297 kts 352°
2026-04-18 10:55 45.76709 9.21346 15331 ft 301 kts 352°
2026-04-18 10:56 45.78806 9.20971 16116 ft 304 kts 352°
2026-04-18 10:56 45.80918 9.20591 16901 ft 308 kts 351°
2026-04-18 10:56 45.83077 9.20194 17681 ft 311 kts 349°
2026-04-18 10:56 45.85146 9.19387 18416 ft 314 kts 337°
2026-04-18 10:57 45.87150 9.17867 18648 ft 333 kts 326°
2026-04-18 10:57 45.89140 9.15967 18845 ft 352 kts 326°
2026-04-18 10:57 45.91196 9.13999 19344 ft 359 kts 326°
2026-04-18 10:57 45.93281 9.12005 19950 ft 363 kts 326°
2026-04-18 10:58 45.95395 9.09986 20608 ft 366 kts 326°
2026-04-18 10:58 45.97611 9.08163 21266 ft 369 kts 335°
2026-04-18 10:58 46.00047 9.06974 21909 ft 374 kts 346°
2026-04-18 10:58 46.02638 9.06438 22553 ft 378 kts 352°
2026-04-18 10:59 46.05269 9.06031 23128 ft 381 kts 352°
2026-04-18 10:59 46.07914 9.05610 23701 ft 385 kts 352°
2026-04-18 10:59 46.10589 9.05175 24185 ft 388 kts 351°
2026-04-18 10:59 46.13279 9.04731 24668 ft 391 kts 351°
2026-04-18 11:00 46.16000 9.04280 25152 ft 395 kts 351°
2026-04-18 11:00 46.18746 9.03855 25626 ft 398 kts 352°
2026-04-18 11:00 46.21511 9.03474 26101 ft 401 kts 352°
2026-04-18 11:00 46.24307 9.03114 26545 ft 405 kts 353°
2026-04-18 11:01 46.27116 9.02759 27003 ft 408 kts 353°
2026-04-18 11:01 46.29960 9.02402 27452 ft 411 kts 353°
2026-04-18 11:01 46.32815 9.02033 27884 ft 415 kts 352°
2026-04-18 11:02 46.38595 9.01251 28793 ft 420 kts 352°
2026-04-18 11:02 46.41521 9.00843 29231 ft 424 kts 352°
2026-04-18 11:02 46.44470 9.00437 29612 ft 427 kts 352°
2026-04-18 11:02 46.47430 9.00041 30022 ft 429 kts 352°
2026-04-18 11:03 46.50418 8.99643 30404 ft 432 kts 352°
2026-04-18 11:03 46.53417 8.99242 30756 ft 435 kts 352°
2026-04-18 11:03 46.56442 8.98834 31105 ft 437 kts 352°
2026-04-18 11:03 46.59472 8.98425 31446 ft 439 kts 352°
2026-04-18 11:04 46.62527 8.98011 31791 ft 441 kts 352°
2026-04-18 11:04 46.65595 8.97593 32142 ft 443 kts 352°
2026-04-18 11:04 46.68653 8.97176 32623 ft 442 kts 352°
2026-04-18 11:04 46.71713 8.96765 33116 ft 441 kts 352°
2026-04-18 11:05 46.74811 8.96353 33595 ft 440 kts 352°
2026-04-18 11:05 46.77809 8.95948 33992 ft 440 kts 352°
2026-04-18 11:05 46.80860 8.95535 34417 ft 440 kts 352°
2026-04-18 11:05 46.83937 8.95113 34854 ft 438 kts 352°
2026-04-18 11:06 46.86974 8.94695 35172 ft 438 kts 351°
2026-04-18 11:06 46.90000 8.94279 35504 ft 438 kts 351°
2026-04-18 11:06 46.93038 8.93865 35883 ft 437 kts 351°
2026-04-18 11:06 46.96062 8.93454 36144 ft 438 kts 351°
2026-04-18 11:07 47.02084 8.92637 36201 ft 431 kts 351°
2026-04-18 11:07 47.08045 8.91810 36197 ft 430 kts 351°
2026-04-18 11:08 47.14000 8.90977 36194 ft 430 kts 351°
2026-04-18 11:08 47.19955 8.90159 36195 ft 430 kts 351°
2026-04-18 11:09 47.25919 8.89330 36204 ft 430 kts 351°
2026-04-18 11:09 47.31907 8.89095 36197 ft 433 kts 359°
2026-04-18 11:10 47.37933 8.89540 36190 ft 434 kts 359°
2026-04-18 11:10 47.43968 8.89991 36189 ft 434 kts 359°
2026-04-18 11:11 47.49997 8.90438 36196 ft 434 kts 359°
2026-04-18 11:11 47.56025 8.90868 36189 ft 434 kts 359°
2026-04-18 11:12 47.62055 8.91301 36194 ft 434 kts 359°
2026-04-18 11:12 47.68121 8.91738 36197 ft 434 kts 359°
2026-04-18 11:13 47.74154 8.92181 36184 ft 434 kts 359°
2026-04-18 11:13 47.80182 8.92630 36176 ft 434 kts 359°
2026-04-18 11:14 47.86213 8.93083 36178 ft 434 kts 359°
2026-04-18 11:14 47.92253 8.93529 36175 ft 434 kts 359°
2026-04-18 11:15 47.98283 8.93962 36173 ft 434 kts 359°
2026-04-18 11:15 48.04316 8.94403 36170 ft 434 kts 359°
2026-04-18 11:16 48.10365 8.94859 36174 ft 434 kts 359°
2026-04-18 11:16 48.16408 8.95309 35970 ft 436 kts 359°
2026-04-18 11:17 48.19438 8.95610 35718 ft 437 kts
2026-04-18 11:17 48.22459 8.96026 35466 ft 437 kts
2026-04-18 11:17 48.25492 8.96519 35219 ft 438 kts
2026-04-18 11:17 48.28519 8.97039 34875 ft 436 kts
2026-04-18 11:18 48.31530 8.97551 34301 ft 434 kts
2026-04-18 11:18 48.34527 8.98042 33659 ft 432 kts
2026-04-18 11:18 48.37536 8.98518 33082 ft 429 kts
2026-04-18 11:18 48.40507 8.98971 32532 ft 429 kts
2026-04-18 11:19 48.43448 8.99412 32403 ft 420 kts
2026-04-18 11:19 48.46338 8.99846 32236 ft 416 kts
2026-04-18 11:19 48.49245 9.00282 31636 ft 423 kts
2026-04-18 11:19 48.52190 9.00724 31034 ft 429 kts
2026-04-18 11:20 48.55184 9.01174 30418 ft 432 kts
2026-04-18 11:20 48.58161 9.01627 29747 ft 430 kts
2026-04-18 11:20 48.61116 9.02083 29161 ft 424 kts
2026-04-18 11:20 48.64036 9.02562 28570 ft 420 kts
2026-04-18 11:21 48.66928 9.03164 27986 ft 419 kts
2026-04-18 11:21 48.69803 9.03857 27401 ft 417 kts
2026-04-18 11:21 48.72686 9.04597 26822 ft 414 kts
2026-04-18 11:21 48.75514 9.05329 26242 ft 411 kts
2026-04-18 11:22 48.78327 9.06043 25686 ft 408 kts
2026-04-18 11:22 48.81118 9.06734 25136 ft 405 kts
2026-04-18 11:22 48.83893 9.07406 24609 ft 402 kts
2026-04-18 11:22 48.85718 9.07842 24262 ft 400 kts
2026-04-18 11:23 48.88467 9.08489 23763 ft 397 kts
2026-04-18 11:23 48.91198 9.09014 23219 ft 394 kts
2026-04-18 11:23 48.93909 9.09414 22746 ft 389 kts
2026-04-18 11:23 48.96600 9.09749 22276 ft 386 kts
2026-04-18 11:24 48.99259 9.10065 21808 ft 384 kts
2026-04-18 11:24 49.01905 9.10394 21328 ft 381 kts
2026-04-18 11:24 49.04534 9.10743 20844 ft 378 kts
2026-04-18 11:24 49.07147 9.11104 20350 ft 375 kts
2026-04-18 11:25 49.09731 9.11472 19861 ft 372 kts
2026-04-18 11:25 49.12306 9.11841 19357 ft 370 kts
2026-04-18 11:25 49.14864 9.12213 18854 ft 368 kts
2026-04-18 11:25 49.17402 9.12583 18344 ft 366 kts
2026-04-18 11:26 49.19918 9.12949 17935 ft 360 kts
2026-04-18 11:26 49.22409 9.13309 17308 ft 360 kts
2026-04-18 11:26 49.24895 9.13664 16825 ft 356 kts
2026-04-18 11:26 49.27379 9.14019 16344 ft 353 kts
2026-04-18 11:27 49.29769 9.14645 15869 ft 353 kts
2026-04-18 11:27 49.32181 9.15498 15379 ft 351 kts
2026-04-18 11:27 49.34558 9.16343 14897 ft 348 kts
2026-04-18 11:27 49.36909 9.17180 14419 ft 346 kts
2026-04-18 11:28 49.39247 9.18010 13952 ft 345 kts
2026-04-18 11:28 49.41579 9.18837 13436 ft 342 kts
2026-04-18 11:28 49.43883 9.19655 12975 ft 339 kts 10°
2026-04-18 11:28 49.46172 9.20469 12512 ft 335 kts 10°
2026-04-18 11:29 49.48429 9.21269 12054 ft 332 kts 10°
2026-04-18 11:29 49.50675 9.22065 11599 ft 330 kts 11°
2026-04-18 11:29 49.52912 9.22861 11145 ft 328 kts 11°
2026-04-18 11:29 49.55118 9.23653 10984 ft 326 kts 11°
2026-04-18 11:30 49.57334 9.24448 10907 ft 327 kts 11°
2026-04-18 11:30 49.59546 9.25240 10782 ft 327 kts 11°
2026-04-18 11:30 49.61763 9.26029 10659 ft 327 kts 11°
2026-04-18 11:30 49.63979 9.26818 10528 ft 327 kts 11°
2026-04-18 11:31 49.66191 9.27607 10396 ft 326 kts 11°
2026-04-18 11:31 49.68403 9.28399 10261 ft 326 kts 11°
2026-04-18 11:31 49.70610 9.29193 10165 ft 325 kts 11°
2026-04-18 11:31 49.72816 9.29987 10170 ft 326 kts 12°
2026-04-18 11:32 49.75020 9.30780 10031 ft 326 kts 11°
2026-04-18 11:32 49.77219 9.31569 9764 ft 325 kts 11°
2026-04-18 11:32 49.79428 9.32363 9500 ft 324 kts 12°
2026-04-18 11:32 49.81613 9.33151 9237 ft 323 kts 11°
2026-04-18 11:33 49.83834 9.33371 8979 ft 319 kts 350°
2026-04-18 11:33 49.85962 9.32671 8725 ft 307 kts 344°
2026-04-18 11:33 49.88004 9.31895 8461 ft 298 kts 344°
2026-04-18 11:33 49.89988 9.31129 8200 ft 289 kts 344°
2026-04-18 11:34 49.91921 9.30387 7956 ft 284 kts 343°
2026-04-18 11:34 49.93861 9.29655 7696 ft 283 kts 345°
2026-04-18 11:34 49.95749 9.28873 7447 ft 281 kts 337°
2026-04-18 11:34 49.97376 9.27341 7229 ft 275 kts 315°
2026-04-18 11:35 49.98575 9.25037 6817 ft 271 kts 302°
2026-04-18 11:35 49.99645 9.22633 6383 ft 270 kts 302°
2026-04-18 11:35 50.00700 9.20239 5962 ft 268 kts 302°
2026-04-18 11:35 50.01754 9.17845 5497 ft 267 kts 302°
2026-04-18 11:36 50.02835 9.15388 5142 ft 287 kts 302°
2026-04-18 11:36 50.03978 9.12785 4885 ft 293 kts 303°
2026-04-18 11:36 50.05115 9.10162 4619 ft 292 kts 301°
2026-04-18 11:36 50.05893 9.07271 4368 ft 290 kts 288°
2026-04-18 11:37 50.06540 9.04301 4117 ft 289 kts 288°
2026-04-18 11:37 50.07183 9.01345 4008 ft 288 kts 288°
2026-04-18 11:37 50.07811 8.98457 4014 ft 272 kts 288°
2026-04-18 11:37 50.08393 8.95768 4013 ft 253 kts 288°
2026-04-18 11:38 50.08934 8.93270 4018 ft 235 kts 288°
2026-04-18 11:38 50.09437 8.90932 4022 ft 221 kts 288°
2026-04-18 11:38 50.09912 8.88726 4024 ft 209 kts 288°
2026-04-18 11:38 50.10269 8.86615 3960 ft 197 kts 275°
2026-04-18 11:39 50.10131 8.84543 3801 ft 193 kts 254°
2026-04-18 11:39 50.09679 8.82605 3553 ft 187 kts 251°
2026-04-18 11:39 50.09226 8.80691 3316 ft 192 kts 251°
2026-04-18 11:39 50.08758 8.78710 3045 ft 193 kts 251°
2026-04-18 11:40 50.08295 8.76751 2790 ft 197 kts 251°
2026-04-18 11:40 50.07817 8.74731 2507 ft 196 kts 250°
2026-04-18 11:40 50.07353 8.72766 2260 ft 192 kts 251°
2026-04-18 11:40 50.06903 8.70866 2004 ft 180 kts 251°
2026-04-18 11:41 50.06483 8.69095 1775 ft 168 kts 250°
2026-04-18 11:41 50.06092 8.67445 1561 ft 157 kts 250°
2026-04-18 11:41 50.05724 8.65894 1354 ft 149 kts 250°
2026-04-18 11:41 50.05374 8.64422 1158 ft 142 kts 251°
2026-04-18 11:42 50.05036 8.62998 977 ft 138 kts 251°
2026-04-18 11:42 50.04707 8.61607 812 ft 137 kts 253°
2026-04-18 11:42 50.04377 8.60211 626 ft 137 kts 252°
2026-04-18 11:42 50.04045 8.58817 434 ft 138 kts 252°
2026-04-18 11:43 50.03728 8.57486 359 ft 119 kts 249°
2026-04-18 11:43 50.03499 8.56533 354 ft 69 kts 250°
2026-04-18 11:43 50.03438 8.56192 351 ft 13 kts 264°
2026-04-18 11:43 50.03439 8.56039 348 ft 16 kts 275°
2026-04-18 11:44 50.03460 8.55846 345 ft 19 kts 279°
2026-04-18 11:44 50.03483 8.55633 347 ft 20 kts 280°
2026-04-18 11:44 50.03488 8.55455 349 ft 16 kts 255°
2026-04-18 11:44 50.03447 8.55283 351 ft 18 kts 250°
2026-04-18 11:45 50.03401 8.55091 349 ft 20 kts 249°
2026-04-18 11:45 50.03351 8.54884 344 ft 21 kts 250°
2026-04-18 11:45 50.03298 8.54660 337 ft 19 kts 249°
2026-04-18 11:45 50.03274 8.54539 335 ft 10 kts 272°
2026-04-18 11:46 50.03320 8.54476 335 ft 10 kts 340°
2026-04-18 11:46 50.03390 8.54436 339 ft 12 kts 339°
2026-04-18 11:46 50.03475 8.54386 347 ft 13 kts 339°
2026-04-18 11:46 50.03567 8.54334 348 ft 14 kts 340°
2026-04-18 11:47 50.03635 8.54303 345 ft 9 kts
2026-04-18 11:47 50.03672 8.54377 345 ft 10 kts 70°
2026-04-18 11:47 50.03701 8.54497 348 ft 13 kts 69°
2026-04-18 11:47 50.03737 8.54645 354 ft 16 kts 70°
2026-04-18 11:48 50.03779 8.54821 347 ft 19 kts 69°
2026-04-18 11:48 50.03830 8.55036 352 ft 22 kts 70°
2026-04-18 11:48 50.03885 8.55265 354 ft 23 kts 70°
2026-04-18 11:48 50.03941 8.55501 352 ft 24 kts 70°
2026-04-18 11:49 50.04000 8.55748 356 ft 25 kts 70°
2026-04-18 11:49 50.04049 8.55946 355 ft 9 kts 59°
2026-04-18 11:49 50.04104 8.55965 356 ft 9 kts 340°
2026-04-18 11:49 50.04165 8.55930 352 ft 10 kts 340°
2026-04-18 11:50 50.04232 8.55928 357 ft 10 kts 33°
2026-04-18 11:50 50.04261 8.56021 354 ft 10 kts 77°
2026-04-18 11:50 50.04318 8.56069 362 ft 10 kts 348°
2026-04-18 11:50 50.04380 8.56034 360 ft 7 kts 340°
2026-04-18 11:51 50.04430 8.56038 356 ft 8 kts 33°
2026-04-18 11:51 50.04454 8.56124 356 ft 9 kts 70°
2026-04-18 11:51 50.04460 8.56185 356 ft 5 kts 123°
2026-04-18 11:51 50.04425 8.56209 362 ft 6 kts 158°
2026-04-18 11:52 50.04405 8.56221 359 ft 2 kts 160°
2026-04-18 11:52 50.04402 8.56222 360 ft 0 kts 160°